Location: T�bingen+AIT
(48.5342°N, 9.0700°E)
Time: 20:29:01
(UTC+02:00)

SL-24 R/B - RUBIN 2 - Pass Details

Date: 14 September 2017
Orbit: 585 x 1011 km, 64.6° (Epoch: 19 September)

Event Time Altitude Azimuth Distance (km) Brightness Sun altitude
Rises 20:12:06 0° 215° (SW) 3,712 7.9 -6.3°
Reaches altitude 10° 20:14:45 10° 215° (SW) 2,741 7.2 -6.8°
Maximum altitude 20:21:15 86° 129° (SE) 946 4.4 -7.8°
Drops below altitude 10° 20:27:13 10° 40° (NE) 2,525 6.4 -8.8°
Sets 20:29:35 0° 40° (NE) 3,402 7.1 -9.2°
